Roosevelt Roads, PR

6:50 PM AST on September 20, 2017 (GMT -0400)
Roosevelt Roads Ns

Weather History for TJNR - April, 2014

Change the Weather History Date:

Friday, April 4, 2014

  Actual Average Record
Temperature  
Mean Temperature 77 °F -  
Max Temperature 81 °F 81 °F 89 °F (2002)
Min Temperature 73 °F 69 °F 46 °F (1997)
Cooling Degree Days 12    
Growing Degree Days 27 (Base 50)    
Moisture  
Dew Point 72 °F    
Average Humidity 86    
Maximum Humidity 94    
Minimum Humidity 71    
Precipitation  
Precipitation 0.72 in - - ()
Sea Level Pressure  
Sea Level Pressure 30.04 in    
Wind  
Wind Speed 11 mph (ENE)    
Max Wind Speed 15 mph    
Max Gust Speed 26 mph    
Visibility 8 miles    
Events Rain    
Averages and records for this station are not official NWS values.
T = Trace of Precipitation, MM = Missing Value Source: NWS Daily Summary

Daily Weather History Graph

Daily Weather History Graph

Search for Another Location

Airport or City:

Trip Planner

Search our weather history database for the weather conditions in past years. The results will help you decide how hot, cold, wet, or windy it might be!

Date:

Astronomy

Apr. 04, 2014 Rise Set
Actual Time 6:14 AM AST 6:36 PM AST
Civil Twilight 5:52 AM AST 6:58 PM AST
Nautical Twilight 5:26 AM AST 7:24 PM AST
Astronomical Twilight 5:01 AM AST 7:50 PM AST
Moon 9:57 AM AST (4/4) 11:14 PM AST (4/4)
Length of Visible Light 13h 06m
Length of Day
12h 22m
Waxing Crescent, 25% of the Moon is Illuminated
Apr 4
Waxing Crescent
Apr 7
First Quarter
Apr 15
Full
Apr 22
Last Quarter
Apr 29
New

Hourly Weather History & Observations

Time (AST) Temp. Heat Index Dew Point Humidity Pressure Visibility Wind Dir Wind Speed Gust Speed Precip Events Conditions
12:31 AM 78.8 °F - 71.6 °F 78% 30.03 in 10.0 mi NE 15.0 mph 20.7 mph N/A   Mostly Cloudy
12:44 AM 77.0 °F - 71.6 °F 83% 30.03 in 10.0 mi NE 11.5 mph - 0.00 in Rain Light Rain
12:53 AM 77.0 °F - 72.0 °F 84% 30.03 in 10.0 mi NNE 9.2 mph - 0.00 in   Mostly Cloudy
1:11 AM 77.0 °F - 71.6 °F 83% 30.02 in 8.0 mi ENE 11.5 mph - 0.01 in Rain Light Rain
1:32 AM 77.0 °F - 71.6 °F 83% 30.01 in 10.0 mi ENE 11.5 mph - 0.01 in   Mostly Cloudy
1:53 AM 75.9 °F - 71.1 °F 85% 30.01 in 7.0 mi ENE 10.4 mph 16.1 mph 0.03 in   Overcast
2:53 AM 75.9 °F - - N/A% 29.98 in 10.0 mi ENE 11.5 mph 17.3 mph 0.07 in   Overcast
3:09 AM 77.0 °F - - N/A% 29.98 in 10.0 mi ENE 11.5 mph - 0.00 in   Overcast
3:38 AM 75.2 °F - - N/A% 29.98 in 10.0 mi NE 12.7 mph - 0.00 in   Mostly Cloudy
3:53 AM 77.0 °F - - N/A% 29.98 in 10.0 mi NE 12.7 mph - 0.00 in   Mostly Cloudy
4:30 AM 77.0 °F - - N/A% 29.98 in 10.0 mi NNE 13.8 mph 19.6 mph N/A   Overcast
4:53 AM 78.1 °F - 75.0 °F 90% 29.99 in 10.0 mi NE 12.7 mph 19.6 mph N/A   Overcast
5:38 AM 77.0 °F - 73.4 °F 89% 30.00 in 10.0 mi East 11.5 mph 19.6 mph N/A   Overcast
5:53 AM 75.0 °F - 73.0 °F 94% 30.01 in 7.0 mi SE 8.1 mph - 0.02 in Rain Rain
6:03 AM 75.2 °F - 73.4 °F 94% 30.01 in 10.0 mi East 8.1 mph 17.3 mph 0.00 in Rain Light Rain
6:31 AM 75.2 °F - 71.6 °F 89% 30.02 in 10.0 mi NE 11.5 mph - 0.00 in Rain Light Rain
6:53 AM 75.0 °F - 72.0 °F 90% 30.02 in 4.0 mi Variable 5.8 mph 16.1 mph 0.01 in Rain Light Rain
7:37 AM 73.4 °F - 71.6 °F 94% 30.05 in 2.5 mi SE 8.1 mph - 0.07 in Rain Rain
7:50 AM 73.4 °F - 71.6 °F 94% 30.05 in 6.0 mi ESE 10.4 mph - 0.10 in Rain Light Rain
7:53 AM 73.9 °F - 72.0 °F 93% 30.06 in 8.0 mi ESE 9.2 mph 18.4 mph 0.10 in Rain Light Rain
8:17 AM 75.2 °F - 71.6 °F 89% 30.06 in 7.0 mi East 6.9 mph - 0.04 in Rain Light Rain
8:25 AM 75.2 °F - 73.4 °F 94% 30.06 in 10.0 mi ESE 4.6 mph - 0.04 in   Overcast
8:53 AM 78.1 °F - 71.1 °F 79% 30.06 in 10.0 mi ENE 6.9 mph - 0.05 in   Overcast
9:01 AM 75.2 °F - 71.6 °F 89% 30.07 in 8.0 mi East 13.8 mph 18.4 mph N/A   Overcast
9:17 AM 75.2 °F - 71.6 °F 89% 30.08 in 2.5 mi NE 8.1 mph 21.9 mph 0.08 in Rain Rain
9:27 AM 75.2 °F - 71.6 °F 89% 30.08 in 5.0 mi NE 8.1 mph 17.3 mph 0.10 in Rain Light Rain
9:53 AM 75.9 °F - 72.0 °F 87% 30.08 in 9.0 mi ENE 10.4 mph 18.4 mph 0.15 in Rain Light Rain
10:24 AM 78.8 °F - 71.6 °F 78% 30.07 in 10.0 mi ENE 11.5 mph 19.6 mph 0.00 in   Overcast
10:53 AM 80.1 °F 83.2 °F 70.0 °F 71% 30.08 in 10.0 mi NE 13.8 mph 21.9 mph 0.00 in   Overcast
11:53 AM 80.1 °F 83.2 °F 70.0 °F 71% 30.07 in 10.0 mi NE 13.8 mph 20.7 mph N/A   Overcast
12:38 PM 77.0 °F - 73.4 °F 89% 30.07 in 10.0 mi NE 9.2 mph - 0.01 in   Overcast
12:51 PM 75.2 °F - 71.6 °F 89% 30.07 in 1.8 mi ENE 12.7 mph 26.5 mph 0.08 in Rain Heavy Rain
12:53 PM 75.0 °F - 72.0 °F 90% 30.07 in 1.8 mi ENE 9.2 mph 26.5 mph 0.09 in Rain Heavy Rain
12:57 PM 75.2 °F - 71.6 °F 89% 30.07 in 3.0 mi ENE 6.9 mph - 0.00 in Rain Light Rain
1:53 PM 81.0 °F - - N/A% 30.04 in 10.0 mi ENE 12.7 mph - 0.00 in   Mostly Cloudy
2:53 PM 79.0 °F - 77.0 °F 94% 30.03 in 10.0 mi ENE 10.4 mph 20.7 mph 0.01 in   Overcast
3:48 PM 78.8 °F - 71.6 °F 78% 30.02 in 10.0 mi NE 12.7 mph - N/A   Overcast
3:53 PM 78.1 °F - 73.0 °F 84% 30.03 in 10.0 mi NE 11.5 mph - N/A   Overcast
4:02 PM 78.8 °F - 71.6 °F 78% 30.02 in 10.0 mi ENE 12.7 mph 19.6 mph N/A   Overcast
4:16 PM 78.8 °F - 71.6 °F 78% 30.02 in 10.0 mi NE 11.5 mph 23.0 mph N/A   Overcast
4:29 PM 78.8 °F - 71.6 °F 78% 30.02 in 10.0 mi NE 13.8 mph 21.9 mph N/A   Overcast
4:42 PM 75.2 °F - 71.6 °F 89% 30.03 in 4.0 mi East 12.7 mph 24.2 mph 0.01 in Rain Light Rain
4:46 PM 75.2 °F - 71.6 °F 89% 30.03 in 2.5 mi East 10.4 mph 21.9 mph 0.03 in Rain Rain
4:50 PM 75.2 °F - 71.6 °F 89% 30.03 in 1.8 mi ENE 12.7 mph 18.4 mph 0.08 in Rain Heavy Rain
4:53 PM 75.0 °F - 72.0 °F 90% 30.04 in 1.5 mi ENE 10.4 mph 18.4 mph 0.12 in Rain Heavy Rain
5:01 PM 75.2 °F - 73.4 °F 94% 30.04 in 3.0 mi ENE 8.1 mph - 0.03 in Rain Light Rain
5:19 PM 75.2 °F - 73.4 °F 94% 30.04 in 10.0 mi ENE 8.1 mph - 0.03 in   Overcast
5:30 PM 77.0 °F - 73.4 °F 89% 30.04 in 10.0 mi ENE 9.2 mph - 0.03 in   Overcast
5:53 PM 75.9 °F - 73.0 °F 91% 30.04 in 2.5 mi Calm Calm - 0.05 in Rain Light Rain
6:00 PM 75.2 °F - 73.4 °F 94% 30.04 in 8.0 mi Variable 5.8 mph - 0.00 in Rain Light Rain
6:53 PM 77.0 °F - 72.0 °F 84% 30.05 in 10.0 mi East 6.9 mph - 0.00 in   Overcast
7:04 PM 77.0 °F - 71.6 °F 83% 30.05 in 10.0 mi ESE 6.9 mph - N/A   Overcast
7:40 PM 77.0 °F - 71.6 °F 83% 30.05 in 10.0 mi East 5.8 mph - N/A   Mostly Cloudy
7:53 PM 77.0 °F - 72.0 °F 84% 30.05 in 10.0 mi East 6.9 mph - N/A   Scattered Clouds
8:16 PM 77.0 °F - 71.6 °F 83% 30.06 in 10.0 mi East 9.2 mph - N/A   Mostly Cloudy
8:29 PM 77.0 °F - 71.6 °F 83% 30.06 in 10.0 mi East 6.9 mph - N/A   Overcast
8:53 PM 75.9 °F - 72.0 °F 87% 30.07 in 6.0 mi East 6.9 mph - 0.01 in Rain Rain
9:53 PM 77.0 °F - 71.1 °F 82% 30.08 in 10.0 mi East 5.8 mph - 0.01 in   Partly Cloudy
10:53 PM 77.0 °F - 71.1 °F 82% 30.08 in 10.0 mi East 9.2 mph - N/A   Scattered Clouds
11:53 PM 77.0 °F - 71.1 °F 82% 30.07 in 10.0 mi East 8.1 mph - N/A   Clear